Flag for Northern Mariana Islands Weather past 2 weeks in Saipan, Northern Mariana Islands

Now
80 °F

Light rain. Passing clouds.


Feels Like: 86 °F
Forecast: 77 / 82 °F
Wind: 13 mph from East

Location: Saipan International Airport

Current Time: Sep 4, 2015 at 1:20:11 AM

Latest Report: Sep 4, 2015 at 12:54 AM


Visibility: 10 mi

Pressure: 29.88 "Hg

Humidity: 90%

Dew point: 77 °F

Location of SaipanLocation

Historic Weather in Saipan — Graph

°F

Saipan temperature yesterday

Maximum temperature yesterday: 84 °F (at 3:54 PM)
Minimum temperature yesterday: 75 °F (at 7:10 AM)
Average temperature yesterday: 79 °F

Past Weeks' High & Low Weather Summary

 TemperatureHumidityPressure
High87 °F (Aug 24, 12:54 PM)100% (Aug 20, 7:03 AM)29.98 "Hg (Aug 20, 7:03 AM)
Low75 °F (Aug 21, 1:07 AM)70% (Aug 27, 2:54 PM)29.67 "Hg (Aug 20, 4:21 PM)
Average81 °F89%29.87 "Hg
* Reported Aug 19 11:54 PM — Sep 3 11:54 PM, Saipan, Weather by CustomWeather, © 2015

Note: Actual official high and low records may vary slightly from our data, if they occured in-between our weather recording intervals... More about our weather records

Advertising

Saipan weather history for previous 24 hours

 ConditionsComfort  
Time TempWeatherWind HumidityBarometerVisibility
11:54 PM
Thu, Sep 3
80 °FPassing clouds.16 mph94%29.92 "Hg10 mi
10:54 PM80 °FOvercast.9 mph94%29.93 "Hg7 mi
9:54 PM80 °FPassing clouds.8 mph94%29.93 "Hg10 mi
8:54 PM80 °FClear.10 mph94%29.91 "Hg10 mi
7:54 PM80 °FPassing clouds.13 mph94%29.91 "Hg10 mi
6:54 PM80 °FPassing clouds.10 mph94%29.90 "Hg10 mi
5:54 PM79 °FScattered clouds.10 mph97%29.90 "Hg10 mi
4:54 PM80 °FScattered clouds.10 mph90%29.87 "Hg10 mi
3:54 PM84 °FScattered clouds.14 mph80%29.87 "Hg10 mi
2:54 PM83 °FScattered clouds.13 mph88%29.88 "Hg10 mi
1:54 PM82 °FScattered clouds.13 mph88%29.90 "Hg10 mi
1:27 PM82 °FScattered clouds.13 mph89%29.84 "Hg10 mi
1:14 PM81 °FBroken clouds.14 mph94%29.85 "Hg10 mi
12:54 PM80 °FPassing clouds.14 mph94%29.92 "Hg10 mi
11:54 AM80 °FBroken clouds.8 mph94%29.94 "Hg10 mi
10:54 AM79 °FBroken clouds.9 mph97%29.95 "Hg10 mi
10:41 AM79 °FLight rain. Cloudy.6 mph94%29.89 "Hg10 mi
10:31 AM79 °FLight rain. Cloudy.6 mph94%29.90 "Hg9 mi
10:12 AM77 °FLight rain. Broken clouds.6 mph100%29.90 "Hg10 mi
9:54 AM77 °FLight rain. Partly sunny.12 mph96%29.97 "Hg10 mi
9:24 AM77 °FLight rain. Fog.16 mph100%29.91 "Hg6 mi
8:54 AM77 °FLight rain. Mostly cloudy.14 mph94%29.98 "Hg8 mi
7:54 AM77 °FLight rain. Broken clouds.No wind96%29.96 "Hg9 mi
7:10 AM75 °FLight rain. Fog.5 mph100%29.89 "Hg4 mi
6:54 AM76 °FRain. Fog.10 mph100%29.94 "Hg2 mi
5:54 AM78 °FPassing clouds.3 mph96%29.91 "Hg10 mi
4:54 AM78 °FPassing clouds.6 mph93%29.91 "Hg10 mi
3:54 AM78 °FLight rain. Overcast.5 mph93%29.90 "Hg10 mi
2:54 AM78 °FPassing clouds.3 mph96%29.91 "Hg10 mi
1:54 AM78 °FPassing clouds.3 mph96%29.92 "Hg10 mi
Weather by CustomWeather, © 2015

See weather overviewHow to use our weather pages